sat.trackr.live / text

‹ back to catalog

UNKNOWN

NORAD 82250

UNKNOWN UNKNOWN UNKNOWN

§ Identity

Operator
Country
Launch date
Launch site
Launch vehicle
Mass (kg)
RCS (m²)

External: N2YO · Heavens-Above

§ Orbital elements

Epoch: 2026-05-23T05:46:31.391904Z

Period
101.77 min
Inclination
98.9054°
Eccentricity
0.0072195
Mean motion
14.15023128 rev/d
Perigee alt
790.1 km
Apogee alt
894.4 km
Semi-major
7,220.4 km
B*
1.1129e-3
RAAN
53.2776°
Arg perigee
91.9503°
Mean anomaly
58.7721°
Rev number
63,946

§ Raw data

UNKNOWN1 82250U          26143.24064111  .00002166  00000+0  11129-2 0  99922 82250  98.9054  53.2776 0072195  91.9503  58.7721 14.15023128639460

JSON: /api/v1/satellites/82250 · /tle

For live sub-satellite position, see the globe view (requires WebGL).

§ Visibility from observer

Set your observer location to see the next 7 days of passes ≥ 10°. The values pass through the URL so the page stays shareable.

No JS? Fill the form by hand. The geolocation button needs JavaScript.